Find Starlink 30416

NORAD ID: 57847 Int'l Des: 2023-141 Owner: SPXS Country: US Constellation: starlink operational
LEOCIRCULAR

リアルタイム位置

3D地球を読み込み中...

Starlink 30416について

説明を読み込み中...

次回通過

Passes for default location (London). Set your location on the main map for personalized predictions.

高度履歴

Loading altitude history...

軌道要素

1 57847U 23141H 26126.93062897 -.00000605 00000-0 -83018-5 0 9991
2 57847 53.1625 13.6544 0001210 84.6336 275.4803 15.30184878149246
Epoch: May 6, 2026 • Age: 5 hours

現在のステータス

高度 475.5 km
速度 7.63 km/s
衛星直下点 4.50°N, 105.19°E
打ち上げ日 Sep 12, 2023
運用期間 2.6 years
タイプ internet

技術仕様

分類 Payload
質量 730.00 kg
乾燥質量 700.00 kg
総質量 730.00 kg
長さ 0.30 m
直径 4.10 m
スパン 29.00 m
形状 Box + pan
製造者 SPXS
バスタイプ Starlink V2M
フェーズステータス In Orbit
所有者/国 SPXS/US

Most Searched